Data supplied by UK-AIR on 14/3/2017
All Data GMT hour ending 
Status: R =Ratified P=Provisional,P*=As supplied
,,Aberdeen Union Street Roadside,,,,,,,,,,,,,,,,,,,,,,,
Date,time,"Nitric oxide",status,unit,"Nitrogen dioxide",status,unit,"Nitrogen oxides as nitrogen dioxide",status,unit
 
01-01-2016,01:00,27.67260,R,ugm-3,50.37143,R,ugm-3,92.80215,R,ugm-3
01-01-2016,02:00,16.67515,R,ugm-3,27.09248,R,ugm-3,52.66069,R,ugm-3
01-01-2016,03:00,20.61912,R,ugm-3,28.64973,R,ugm-3,60.26527,R,ugm-3
01-01-2016,04:00,7.87608,R,ugm-3,23.17042,R,ugm-3,35.24690,R,ugm-3
01-01-2016,05:00,7.13237,R,ugm-3,18.64592,R,ugm-3,29.58207,R,ugm-3
01-01-2016,06:00,14.12941,R,ugm-3,36.92225,R,ugm-3,58.58705,R,ugm-3
01-01-2016,07:00,22.03886,R,ugm-3,54.74388,R,ugm-3,88.53632,R,ugm-3
01-01-2016,08:00,5.71263,R,ugm-3,26.85437,R,ugm-3,35.61362,R,ugm-3
01-01-2016,09:00,2.36613,R,ugm-3,7.96365,R,ugm-3,11.59166,R,ugm-3
01-01-2016,10:00,2.70415,R,ugm-3,12.90029,R,ugm-3,17.04659,R,ugm-3
01-01-2016,11:00,3.98855,R,ugm-3,18.48336,R,ugm-3,24.59905,R,ugm-3
01-01-2016,12:00,3.21117,R,ugm-3,15.74131,R,ugm-3,20.66504,R,ugm-3
01-01-2016,13:00,4.79992,R,ugm-3,19.96698,R,ugm-3,27.32676,R,ugm-3
01-01-2016,14:00,4.05622,R,ugm-3,15.17999,R,ugm-3,21.39944,R,ugm-3
01-01-2016,15:00,2.56881,R,ugm-3,8.02007,R,ugm-3,11.95886,R,ugm-3
01-01-2016,16:00,2.36613,R,ugm-3,8.85583,R,ugm-3,12.48384,R,ugm-3
01-01-2016,17:00,2.23111,R,ugm-3,7.64570,R,ugm-3,11.06668,R,ugm-3
01-01-2016,18:00,2.16313,R,ugm-3,7.43532,R,ugm-3,10.75208,R,ugm-3
01-01-2016,19:00,1.79112,R,ugm-3,6.48529,R,ugm-3,9.23164,R,ugm-3
01-01-2016,20:00,1.14908,R,ugm-3,5.05665,R,ugm-3,6.81854,R,ugm-3
01-01-2016,21:00,1.62274,R,ugm-3,4.85488,R,ugm-3,7.34304,R,ugm-3
01-01-2016,22:00,1.25073,R,ugm-3,4.74348,R,ugm-3,6.66124,R,ugm-3
01-01-2016,23:00,1.21705,R,ugm-3,4.16495,R,ugm-3,6.03107,R,ugm-3
01-01-2016,24:00,1.21674,R,ugm-3,4.16638,R,ugm-3,6.03203,R,ugm-3
02-01-2016,01:00,1.35291,R,ugm-3,3.73511,R,ugm-3,5.80954,R,ugm-3
02-01-2016,02:00,0.76709,R,ugm-3,3.16391,R,ugm-3,4.34010,R,ugm-3
02-01-2016,03:00,0.77832,R,ugm-3,3.32153,R,ugm-3,4.51493,R,ugm-3
02-01-2016,04:00,1.04898,R,ugm-3,3.53669,R,ugm-3,5.14510,R,ugm-3
02-01-2016,05:00,0.57501,R,ugm-3,3.21300,R,ugm-3,4.09466,R,ugm-3
02-01-2016,06:00,0.64267,R,ugm-3,3.68730,R,ugm-3,4.67272,R,ugm-3
02-01-2016,07:00,1.86066,R,ugm-3,4.54936,R,ugm-3,7.40233,R,ugm-3
02-01-2016,08:00,4.09395,R,ugm-3,8.05497,R,ugm-3,14.33228,R,ugm-3
02-01-2016,09:00,6.96960,R,ugm-3,9.36790,R,ugm-3,20.05448,R,ugm-3
02-01-2016,10:00,5.34530,R,ugm-3,9.96843,R,ugm-3,18.16445,R,ugm-3
02-01-2016,11:00,5.78529,R,ugm-3,9.92348,R,ugm-3,18.79414,R,ugm-3
02-01-2016,12:00,10.75859,R,ugm-3,10.96006,R,ugm-3,27.45633,R,ugm-3
02-01-2016,13:00,11.77420,R,ugm-3,15.70306,R,ugm-3,33.75658,R,ugm-3
02-01-2016,14:00,9.98090,R,ugm-3,16.14293,R,ugm-3,31.44676,R,ugm-3
02-01-2016,15:00,11.70622,R,ugm-3,22.57898,R,ugm-3,40.52827,R,ugm-3
02-01-2016,16:00,12.18020,R,ugm-3,19.38510,R,ugm-3,38.06114,R,ugm-3
02-01-2016,17:00,9.03357,R,ugm-3,13.92061,R,ugm-3,27.77189,R,ugm-3
02-01-2016,18:00,7.88294,R,ugm-3,12.48193,R,ugm-3,24.56893,R,ugm-3
02-01-2016,19:00,9.67655,R,ugm-3,11.04421,R,ugm-3,25.88138,R,ugm-3
02-01-2016,20:00,9.84525,R,ugm-3,14.67079,R,ugm-3,29.76663,R,ugm-3
02-01-2016,21:00,9.10092,R,ugm-3,15.07719,R,ugm-3,29.03175,R,ugm-3
02-01-2016,22:00,6.39428,R,ugm-3,11.03704,R,ugm-3,20.84147,R,ugm-3
02-01-2016,23:00,7.91661,R,ugm-3,11.01313,R,ugm-3,23.15177,R,ugm-3
02-01-2016,24:00,4.77061,R,ugm-3,7.91010,R,ugm-3,15.22493,R,ugm-3
03-01-2016,01:00,6.27018,R,ugm-3,8.93584,R,ugm-3,18.54998,R,ugm-3
03-01-2016,02:00,4.78132,R,ugm-3,6.66825,R,ugm-3,13.99950,R,ugm-3
03-01-2016,03:00,3.58599,R,ugm-3,6.73343,R,ugm-3,12.23187,R,ugm-3
03-01-2016,04:00,3.07834,R,ugm-3,6.93520,R,ugm-3,11.65525,R,ugm-3
03-01-2016,05:00,1.48834,R,ugm-3,7.00979,R,ugm-3,9.29188,R,ugm-3
03-01-2016,06:00,0.91334,R,ugm-3,6.68467,R,ugm-3,8.08509,R,ugm-3
03-01-2016,07:00,1.52233,R,ugm-3,7.22017,R,ugm-3,9.55437,R,ugm-3
03-01-2016,08:00,7.27425,R,ugm-3,15.83072,R,ugm-3,26.98442,R,ugm-3
03-01-2016,09:00,8.72861,R,ugm-3,17.38032,R,ugm-3,30.76400,R,ugm-3
03-01-2016,10:00,8.22127,R,ugm-3,14.27299,R,ugm-3,26.87875,R,ugm-3
03-01-2016,11:00,9.54060,R,ugm-3,16.97535,R,ugm-3,31.60406,R,ugm-3
03-01-2016,12:00,9.94722,R,ugm-3,18.03201,R,ugm-3,33.28419,R,ugm-3
03-01-2016,13:00,16.67983,R,ugm-3,19.83502,R,ugm-3,45.41040,R,ugm-3
03-01-2016,14:00,11.67255,R,ugm-3,18.43076,R,ugm-3,36.32842,R,ugm-3
03-01-2016,15:00,12.28154,R,ugm-3,17.75995,R,ugm-3,36.59138,R,ugm-3
03-01-2016,16:00,19.14980,R,ugm-3,22.82043,R,ugm-3,52.18304,R,ugm-3
03-01-2016,17:00,22.80345,R,ugm-3,25.82783,R,ugm-3,60.79264,R,ugm-3
03-01-2016,18:00,9.26993,R,ugm-3,12.77024,R,ugm-3,26.98394,R,ugm-3
03-01-2016,19:00,12.51790,R,ugm-3,22.96243,R,ugm-3,42.15628,R,ugm-3
03-01-2016,20:00,9.84525,R,ugm-3,21.70496,R,ugm-3,36.80080,R,ugm-3
03-01-2016,21:00,9.91292,R,ugm-3,23.80680,R,ugm-3,39.00639,R,ugm-3
03-01-2016,22:00,11.90922,R,ugm-3,26.67746,R,ugm-3,44.93801,R,ugm-3
03-01-2016,23:00,8.52592,R,ugm-3,20.15823,R,ugm-3,33.23112,R,ugm-3
03-01-2016,24:00,5.61659,R,ugm-3,16.27155,R,ugm-3,24.88354,R,ugm-3
04-01-2016,01:00,5.05697,R,ugm-3,16.06691,R,ugm-3,23.82083,R,ugm-3
04-01-2016,02:00,4.01839,R,ugm-3,15.20693,R,ugm-3,21.36836,R,ugm-3
04-01-2016,03:00,3.99604,R,ugm-3,16.94045,R,ugm-3,23.06762,R,ugm-3
04-01-2016,04:00,3.31875,R,ugm-3,13.72267,R,ugm-3,18.81135,R,ugm-3
04-01-2016,05:00,5.31662,R,ugm-3,16.07169,R,ugm-3,24.22373,R,ugm-3
04-01-2016,06:00,8.94034,R,ugm-3,20.07934,R,ugm-3,33.78766,R,ugm-3
04-01-2016,07:00,14.42596,R,ugm-3,22.33418,R,ugm-3,44.45367,R,ugm-3
04-01-2016,08:00,22.58736,R,ugm-3,30.73388,R,ugm-3,65.36734,R,ugm-3
04-01-2016,09:00,23.09532,R,ugm-3,30.58470,R,ugm-3,65.99703,R,ugm-3
04-01-2016,10:00,27.22669,R,ugm-3,42.22131,R,ugm-3,83.96831,R,ugm-3
04-01-2016,11:00,21.30045,R,ugm-3,28.13574,R,ugm-3,60.79598,R,ugm-3
04-01-2016,12:00,22.31638,R,ugm-3,29.78288,R,ugm-3,64.00086,R,ugm-3
04-01-2016,13:00,28.00532,R,ugm-3,34.40683,R,ugm-3,77.34772,R,ugm-3
04-01-2016,14:00,32.94992,R,ugm-3,39.27845,R,ugm-3,89.80096,R,ugm-3
04-01-2016,15:00,27.87030,R,ugm-3,33.66813,R,ugm-3,76.40198,R,ugm-3
04-01-2016,16:00,27.26068,R,ugm-3,41.53902,R,ugm-3,83.33814,R,ugm-3
04-01-2016,17:00,28.14096,R,ugm-3,40.29398,R,ugm-3,83.44285,R,ugm-3
04-01-2016,18:00,41.78798,R,ugm-3,49.74078,R,ugm-3,113.81479,R,ugm-3
04-01-2016,19:00,35.08343,R,ugm-3,53.13642,R,ugm-3,106.93027,R,ugm-3
04-01-2016,20:00,22.95999,R,ugm-3,45.19046,R,ugm-3,80.39528,R,ugm-3
04-01-2016,21:00,21.16543,R,ugm-3,43.21294,R,ugm-3,75.66615,R,ugm-3
04-01-2016,22:00,18.25268,R,ugm-3,43.31813,R,ugm-3,71.30517,R,ugm-3
04-01-2016,23:00,18.69266,R,ugm-3,40.64636,R,ugm-3,69.30804,R,ugm-3
04-01-2016,24:00,15.10324,R,ugm-3,38.53114,R,ugm-3,61.68912,R,ugm-3
05-01-2016,01:00,9.94306,R,ugm-3,34.63793,R,ugm-3,49.88374,R,ugm-3
05-01-2016,02:00,9.35517,R,ugm-3,37.50094,R,ugm-3,51.84533,R,ugm-3
05-01-2016,03:00,8.33851,R,ugm-3,34.40109,R,ugm-3,47.18663,R,ugm-3
05-01-2016,04:00,8.43986,R,ugm-3,35.66382,R,ugm-3,48.60475,R,ugm-3
05-01-2016,05:00,7.86360,R,ugm-3,33.28945,R,ugm-3,45.34681,R,ugm-3
05-01-2016,06:00,18.20185,R,ugm-3,42.92272,R,ugm-3,70.83183,R,ugm-3
05-01-2016,07:00,27.31961,R,ugm-3,47.38601,R,ugm-3,89.27550,R,ugm-3
05-01-2016,08:00,38.40312,R,ugm-3,52.40776,R,ugm-3,111.29172,R,ugm-3
05-01-2016,09:00,53.38506,R,ugm-3,60.12278,R,ugm-3,141.97874,R,ugm-3
05-01-2016,10:00,53.04642,R,ugm-3,62.69175,R,ugm-3,144.02846,R,ugm-3
05-01-2016,11:00,61.92657,R,ugm-3,66.73143,R,ugm-3,161.68418,R,ugm-3
05-01-2016,12:00,57.45282,R,ugm-3,68.54591,R,ugm-3,156.63901,R,ugm-3
05-01-2016,13:00,60.87635,R,ugm-3,66.65971,R,ugm-3,160.00214,R,ugm-3
05-01-2016,14:00,72.73911,R,ugm-3,67.59731,R,ugm-3,179.12905,R,ugm-3
05-01-2016,15:00,79.24721,R,ugm-3,70.59755,R,ugm-3,192.10823,R,ugm-3
05-01-2016,16:00,68.26504,R,ugm-3,68.46702,R,ugm-3,173.13863,R,ugm-3
05-01-2016,17:00,61.11333,R,ugm-3,59.67622,R,ugm-3,153.38202,R,ugm-3
05-01-2016,18:00,60.94401,R,ugm-3,66.97671,R,ugm-3,160.42289,R,ugm-3
05-01-2016,19:00,55.38511,R,ugm-3,62.57365,R,ugm-3,147.49630,R,ugm-3
05-01-2016,20:00,31.52270,R,ugm-3,43.88375,R,ugm-3,92.21788,R,ugm-3
05-01-2016,21:00,18.40547,R,ugm-3,38.35423,R,ugm-3,66.57556,R,ugm-3
05-01-2016,22:00,14.77832,R,ugm-3,37.19000,R,ugm-3,59.84978,R,ugm-3
05-01-2016,23:00,7.15171,R,ugm-3,17.82928,R,ugm-3,28.79508,R,ugm-3
05-01-2016,24:00,5.35559,R,ugm-3,12.64880,R,ugm-3,20.86059,R,ugm-3
06-01-2016,01:00,3.02803,R,ugm-3,14.36096,R,ugm-3,19.00388,R,ugm-3
06-01-2016,02:00,3.11825,R,ugm-3,11.41763,R,ugm-3,16.19888,R,ugm-3
06-01-2016,03:00,2.44034,R,ugm-3,8.82810,R,ugm-3,12.56991,R,ugm-3
06-01-2016,04:00,1.76244,R,ugm-3,8.34233,R,ugm-3,11.04469,R,ugm-3
06-01-2016,05:00,1.99973,R,ugm-3,6.82141,R,ugm-3,9.88763,R,ugm-3
06-01-2016,06:00,5.21995,R,ugm-3,16.50488,R,ugm-3,24.50869,R,ugm-3
06-01-2016,07:00,13.04988,R,ugm-3,16.43794,R,ugm-3,36.44747,R,ugm-3
06-01-2016,08:00,24.26903,R,ugm-3,27.84648,R,ugm-3,65.05847,R,ugm-3
06-01-2016,09:00,25.59117,R,ugm-3,30.28970,R,ugm-3,69.52894,R,ugm-3
06-01-2016,10:00,23.76075,R,ugm-3,30.83476,R,ugm-3,67.26741,R,ugm-3
06-01-2016,11:00,20.20158,R,ugm-3,25.29998,R,ugm-3,56.27531,R,ugm-3
06-01-2016,12:00,26.43839,R,ugm-3,30.41066,R,ugm-3,70.94897,R,ugm-3
06-01-2016,13:00,20.74416,R,ugm-3,33.09342,R,ugm-3,64.90069,R,ugm-3
06-01-2016,14:00,17.11701,R,ugm-3,29.92441,R,ugm-3,56.17013,R,ugm-3
06-01-2016,15:00,17.65927,R,ugm-3,26.72623,R,ugm-3,53.80341,R,ugm-3
06-01-2016,16:00,18.20185,R,ugm-3,26.42023,R,ugm-3,54.32934,R,ugm-3
06-01-2016,17:00,18.81209,R,ugm-3,25.80010,R,ugm-3,54.64491,R,ugm-3
06-01-2016,18:00,17.65927,R,ugm-3,27.83070,R,ugm-3,54.90788,R,ugm-3
06-01-2016,19:00,12.43964,R,ugm-3,20.42407,R,ugm-3,39.49791,R,ugm-3
06-01-2016,20:00,12.37197,R,ugm-3,18.16110,R,ugm-3,37.13119,R,ugm-3
06-01-2016,21:00,8.91445,R,ugm-3,10.78746,R,ugm-3,24.45609,R,ugm-3
06-01-2016,22:00,6.60976,R,ugm-3,7.74706,R,ugm-3,17.88188,R,ugm-3
06-01-2016,23:00,5.28762,R,ugm-3,8.51206,R,ugm-3,16.61963,R,ugm-3
06-01-2016,24:00,4.37241,R,ugm-3,8.39014,R,ugm-3,15.09441,R,ugm-3
07-01-2016,01:00,4.11651,R,ugm-3,8.49788,R,ugm-3,14.80976,R,ugm-3
07-01-2016,02:00,1.94537,R,ugm-3,7.19419,R,ugm-3,10.17705,R,ugm-3
07-01-2016,03:00,1.52670,R,ugm-3,6.60817,R,ugm-3,8.94907,R,ugm-3
07-01-2016,04:00,1.93363,R,ugm-3,8.14247,R,ugm-3,11.10732,R,ugm-3
07-01-2016,05:00,1.01780,R,ugm-3,8.75686,R,ugm-3,10.31746,R,ugm-3
07-01-2016,06:00,4.61408,R,ugm-3,13.40280,R,ugm-3,20.47762,R,ugm-3
07-01-2016,07:00,17.50648,R,ugm-3,20.37673,R,ugm-3,47.21963,R,ugm-3
07-01-2016,08:00,25.27529,R,ugm-3,24.88880,R,ugm-3,63.64370,R,ugm-3
07-01-2016,09:00,28.53199,R,ugm-3,28.94951,R,ugm-3,72.69795,R,ugm-3
07-01-2016,10:00,27.64984,R,ugm-3,25.77476,R,ugm-3,68.17058,R,ugm-3
07-01-2016,11:00,24.73271,R,ugm-3,24.98394,R,ugm-3,62.90691,R,ugm-3
07-01-2016,12:00,26.19112,R,ugm-3,23.06332,R,ugm-3,63.22247,R,ugm-3
07-01-2016,13:00,23.10374,R,ugm-3,29.48167,R,ugm-3,64.90690,R,ugm-3
07-01-2016,14:00,26.59867,R,ugm-3,27.54478,R,ugm-3,68.32884,R,ugm-3
07-01-2016,15:00,26.83566,R,ugm-3,31.02410,R,ugm-3,72.17153,R,ugm-3
07-01-2016,16:00,22.83276,R,ugm-3,31.89811,R,ugm-3,66.90786,R,ugm-3
07-01-2016,17:00,20.66121,R,ugm-3,28.75253,R,ugm-3,60.43261,R,ugm-3
07-01-2016,18:00,20.66153,R,ugm-3,26.69850,R,ugm-3,58.37906,R,ugm-3
07-01-2016,19:00,19.10053,R,ugm-3,26.77596,R,ugm-3,56.06303,R,ugm-3
07-01-2016,20:00,15.87782,R,ugm-3,23.82162,R,ugm-3,48.16727,R,ugm-3
07-01-2016,21:00,9.70337,R,ugm-3,23.97080,R,ugm-3,38.84909,R,ugm-3
07-01-2016,22:00,15.57223,R,ugm-3,29.34349,R,ugm-3,53.22057,R,ugm-3
07-01-2016,23:00,33.62128,R,ugm-3,38.93850,R,ugm-3,90.49042,R,ugm-3
07-01-2016,24:00,20.83085,R,ugm-3,27.80823,R,ugm-3,59.74841,R,ugm-3
08-01-2016,01:00,9.40880,R,ugm-3,20.31649,R,ugm-3,34.74311,R,ugm-3
08-01-2016,02:00,5.20207,R,ugm-3,19.39721,R,ugm-3,27.37361,R,ugm-3
08-01-2016,03:00,4.30880,R,ugm-3,14.23904,R,ugm-3,20.84577,R,ugm-3
08-01-2016,04:00,3.01940,R,ugm-3,13.58401,R,ugm-3,18.21369,R,ugm-3
08-01-2016,05:00,4.20683,R,ugm-3,12.34232,R,ugm-3,18.79270,R,ugm-3
08-01-2016,06:00,28.70162,R,ugm-3,41.69202,R,ugm-3,85.70056,R,ugm-3
08-01-2016,07:00,105.98651,R,ugm-3,70.74433,R,ugm-3,233.25472,R,ugm-3
08-01-2016,08:00,219.33552,R,ugm-3,114.88101,R,ugm-3,451.19078,R,ugm-3
08-01-2016,09:00,275.95889,R,ugm-3,127.02634,R,ugm-3,550.15740,R,ugm-3
08-01-2016,10:00,231.78607,R,ugm-3,140.64095,R,ugm-3,496.04130,R,ugm-3
08-01-2016,11:00,199.35253,R,ugm-3,111.93576,R,ugm-3,417.60537,R,ugm-3
08-01-2016,12:00,187.34259,R,ugm-3,103.29317,R,ugm-3,390.54780,R,ugm-3
08-01-2016,13:00,203.32175,R,ugm-3,97.11149,R,ugm-3,408.86716,R,ugm-3
08-01-2016,14:00,281.55646,R,ugm-3,121.07559,R,ugm-3,552.78948,R,ugm-3
08-01-2016,15:00,245.56032,R,ugm-3,116.25705,R,ugm-3,492.77762,R,ugm-3
08-01-2016,16:00,310.22440,R,ugm-3,126.18053,R,ugm-3,601.85132,R,ugm-3
08-01-2016,17:00,294.10897,R,ugm-3,116.67302,R,ugm-3,567.63383,R,ugm-3
08-01-2016,18:00,259.64015,R,ugm-3,101.24871,R,ugm-3,499.35805,R,ugm-3
08-01-2016,19:00,247.66358,R,ugm-3,99.55567,R,ugm-3,479.30119,R,ugm-3
08-01-2016,20:00,136.55472,R,ugm-3,85.93771,R,ugm-3,295.31869,R,ugm-3
08-01-2016,21:00,73.75597,R,ugm-3,65.68003,R,ugm-3,178.77094,R,ugm-3
08-01-2016,22:00,43.79925,R,ugm-3,55.07618,R,ugm-3,122.23409,R,ugm-3
08-01-2016,23:00,47.25989,R,ugm-3,55.13929,R,ugm-3,127.60343,R,ugm-3
08-01-2016,24:00,71.99229,R,ugm-3,50.85433,R,ugm-3,161.24096,R,ugm-3
09-01-2016,01:00,93.54210,R,ugm-3,66.97766,R,ugm-3,210.40688,R,ugm-3
09-01-2016,02:00,29.56558,R,ugm-3,37.07254,R,ugm-3,82.40580,R,ugm-3
09-01-2016,03:00,35.82526,R,ugm-3,37.59114,R,ugm-3,92.52245,R,ugm-3
09-01-2016,04:00,19.18628,R,ugm-3,33.38699,R,ugm-3,62.80554,R,ugm-3
09-01-2016,05:00,15.41694,R,ugm-3,32.21176,R,ugm-3,55.85074,R,ugm-3
09-01-2016,06:00,32.63342,R,ugm-3,37.16370,R,ugm-3,87.20092,R,ugm-3
09-01-2016,07:00,65.40249,R,ugm-3,57.52178,R,ugm-3,157.80420,R,ugm-3
09-01-2016,08:00,124.28503,R,ugm-3,69.13831,R,ugm-3,259.70603,R,ugm-3
09-01-2016,09:00,118.27460,R,ugm-3,73.45387,R,ugm-3,254.80572,R,ugm-3
09-01-2016,10:00,118.58050,R,ugm-3,68.98053,R,ugm-3,250.80143,R,ugm-3
09-01-2016,11:00,197.97395,R,ugm-3,71.96116,R,ugm-3,375.51698,R,ugm-3
09-01-2016,12:00,277.84169,R,ugm-3,103.03642,R,ugm-3,529.05440,R,ugm-3
09-01-2016,13:00,266.90786,R,ugm-3,117.00818,R,ugm-3,526.26119,R,ugm-3
09-01-2016,14:00,218.31430,R,ugm-3,106.26615,R,ugm-3,441.01007,R,ugm-3
09-01-2016,15:00,231.01462,R,ugm-3,84.21072,R,ugm-3,438.42819,R,ugm-3
09-01-2016,16:00,155.66211,R,ugm-3,85.73020,R,ugm-3,324.40877,R,ugm-3
09-01-2016,17:00,80.68378,R,ugm-3,75.08332,R,ugm-3,198.79673,R,ugm-3
09-01-2016,18:00,81.94013,R,ugm-3,84.95947,R,ugm-3,210.59924,R,ugm-3
09-01-2016,19:00,117.73140,R,ugm-3,79.66088,R,ugm-3,260.17985,R,ugm-3
09-01-2016,20:00,100.48093,R,ugm-3,74.60280,R,ugm-3,228.67141,R,ugm-3
09-01-2016,21:00,116.57702,R,ugm-3,79.00729,R,ugm-3,257.75623,R,ugm-3
09-01-2016,22:00,59.18844,R,ugm-3,71.31760,R,ugm-3,162.07194,R,ugm-3
09-01-2016,23:00,35.72330,R,ugm-3,61.24686,R,ugm-3,116.02181,R,ugm-3
09-01-2016,24:00,19.93310,R,ugm-3,40.35662,R,ugm-3,70.92028,R,ugm-3
10-01-2016,01:00,10.23243,R,ugm-3,26.18085,R,ugm-3,41.87036,R,ugm-3
10-01-2016,02:00,7.38027,R,ugm-3,32.52079,R,ugm-3,43.83705,R,ugm-3
10-01-2016,03:00,7.50469,R,ugm-3,24.42741,R,ugm-3,35.93444,R,ugm-3
10-01-2016,04:00,2.47870,R,ugm-3,7.89623,R,ugm-3,11.69685,R,ugm-3
10-01-2016,05:00,1.46028,R,ugm-3,8.45708,R,ugm-3,10.69613,R,ugm-3
10-01-2016,06:00,1.12039,R,ugm-3,6.60721,R,ugm-3,8.32511,R,ugm-3
10-01-2016,07:00,1.56193,R,ugm-3,8.82762,R,ugm-3,11.22255,R,ugm-3
10-01-2016,08:00,3.53173,R,ugm-3,15.18621,R,ugm-3,20.60145,R,ugm-3
10-01-2016,09:00,4.55015,R,ugm-3,20.94857,R,ugm-3,27.92537,R,ugm-3
10-01-2016,10:00,9.06694,R,ugm-3,26.66838,R,ugm-3,40.57082,R,ugm-3
10-01-2016,11:00,16.46935,R,ugm-3,38.71187,R,ugm-3,63.96452,R,ugm-3
10-01-2016,12:00,29.33899,R,ugm-3,51.38266,R,ugm-3,96.36848,R,ugm-3
10-01-2016,13:00,30.93554,R,ugm-3,57.31284,R,ugm-3,104.74667,R,ugm-3
10-01-2016,14:00,42.14159,R,ugm-3,62.47086,R,ugm-3,127.08706,R,ugm-3
10-01-2016,15:00,97.01718,R,ugm-3,84.28722,R,ugm-3,233.04482,R,ugm-3
10-01-2016,16:00,90.12397,R,ugm-3,81.52653,R,ugm-3,219.71469,R,ugm-3
10-01-2016,17:00,48.72952,R,ugm-3,66.54305,R,ugm-3,141.26060,R,ugm-3
10-01-2016,18:00,48.89946,R,ugm-3,54.32169,R,ugm-3,129.29982,R,ugm-3
10-01-2016,19:00,65.47047,R,ugm-3,71.96020,R,ugm-3,172.34685,R,ugm-3
10-01-2016,20:00,60.41079,R,ugm-3,76.13519,R,ugm-3,168.76378,R,ugm-3
10-01-2016,21:00,51.03827,R,ugm-3,53.62363,R,ugm-3,131.88122,R,ugm-3
10-01-2016,22:00,35.35004,R,ugm-3,51.91386,R,ugm-3,106.11650,R,ugm-3
10-01-2016,23:00,31.68236,R,ugm-3,39.36021,R,ugm-3,87.93914,R,ugm-3
10-01-2016,24:00,7.84427,R,ugm-3,16.37196,R,ugm-3,28.39967,R,ugm-3
11-01-2016,01:00,3.17230,R,ugm-3,9.69128,R,ugm-3,14.55540,R,ugm-3
11-01-2016,02:00,4.07867,R,ugm-3,12.30949,R,ugm-3,18.56336,R,ugm-3
11-01-2016,03:00,2.10731,R,ugm-3,10.42791,R,ugm-3,13.65908,R,ugm-3
11-01-2016,04:00,1.52950,R,ugm-3,6.88404,R,ugm-3,9.22925,R,ugm-3
11-01-2016,05:00,3.87474,R,ugm-3,10.30168,R,ugm-3,16.24286,R,ugm-3
11-01-2016,06:00,7.17166,R,ugm-3,19.38032,R,ugm-3,30.37672,R,ugm-3
11-01-2016,07:00,15.15906,R,ugm-3,22.84864,R,ugm-3,46.09221,R,ugm-3
11-01-2016,08:00,25.18579,R,ugm-3,33.63227,R,ugm-3,72.24995,R,ugm-3
11-01-2016,09:00,26.03552,R,ugm-3,42.61337,R,ugm-3,82.53394,R,ugm-3
11-01-2016,10:00,19.30571,R,ugm-3,33.89380,R,ugm-3,63.49548,R,ugm-3
11-01-2016,11:00,23.24843,R,ugm-3,31.38221,R,ugm-3,67.02930,R,ugm-3
11-01-2016,12:00,21.78690,R,ugm-3,30.08984,R,ugm-3,63.49596,R,ugm-3
11-01-2016,13:00,25.83158,R,ugm-3,44.56077,R,ugm-3,84.16865,R,ugm-3
11-01-2016,14:00,32.96926,R,ugm-3,43.53137,R,ugm-3,94.08353,R,ugm-3
11-01-2016,15:00,32.35746,R,ugm-3,47.05324,R,ugm-3,96.66731,R,ugm-3
11-01-2016,16:00,35.96028,R,ugm-3,58.56314,R,ugm-3,113.70147,R,ugm-3
11-01-2016,17:00,71.13882,R,ugm-3,82.88536,R,ugm-3,191.96336,R,ugm-3
11-01-2016,18:00,86.73974,R,ugm-3,91.66134,R,ugm-3,224.66042,R,ugm-3
11-01-2016,19:00,72.19248,R,ugm-3,79.63507,R,ugm-3,190.32865,R,ugm-3
11-01-2016,20:00,125.21520,R,ugm-3,92.25948,R,ugm-3,284.25344,R,ugm-3
11-01-2016,21:00,238.80619,R,ugm-3,112.58362,R,ugm-3,478.74800,R,ugm-3
11-01-2016,22:00,152.74623,R,ugm-3,100.51526,R,ugm-3,334.72288,R,ugm-3
11-01-2016,23:00,72.97422,R,ugm-3,68.04675,R,ugm-3,179.93900,R,ugm-3
11-01-2016,24:00,16.85851,R,ugm-3,28.62821,R,ugm-3,54.47756,R,ugm-3
12-01-2016,01:00,10.83114,R,ugm-3,23.47275,R,ugm-3,40.08026,R,ugm-3
12-01-2016,02:00,1.67679,R,ugm-3,6.49995,R,ugm-3,9.07099,R,ugm-3
12-01-2016,03:00,2.71911,R,ugm-3,7.69686,R,ugm-3,11.86611,R,ugm-3
12-01-2016,04:00,1.52950,R,ugm-3,6.30408,R,ugm-3,8.64928,R,ugm-3
12-01-2016,05:00,1.42754,R,ugm-3,6.56513,R,ugm-3,8.75399,R,ugm-3
12-01-2016,06:00,19.33970,R,ugm-3,30.99398,R,ugm-3,60.64777,R,ugm-3
12-01-2016,07:00,95.50888,R,ugm-3,70.09408,R,ugm-3,216.53899,R,ugm-3
12-01-2016,08:00,173.81936,R,ugm-3,92.83179,R,ugm-3,359.35110,R,ugm-3
12-01-2016,09:00,138.26695,R,ugm-3,101.56905,R,ugm-3,313.57541,R,ugm-3
12-01-2016,10:00,145.54058,R,ugm-3,82.34747,R,ugm-3,305.50658,R,ugm-3
12-01-2016,11:00,120.72866,R,ugm-3,81.73547,R,ugm-3,266.85017,R,ugm-3
12-01-2016,12:00,139.15066,R,ugm-3,79.27743,R,ugm-3,292.63880,R,ugm-3
12-01-2016,13:00,207.63834,R,ugm-3,101.36059,R,ugm-3,419.73494,R,ugm-3
12-01-2016,14:00,159.13615,R,ugm-3,93.40698,R,ugm-3,337.41233,R,ugm-3
12-01-2016,15:00,128.00229,R,ugm-3,86.72040,R,ugm-3,282.98784,R,ugm-3
12-01-2016,16:00,103.66622,R,ugm-3,109.53270,R,ugm-3,268.48536,R,ugm-3
12-01-2016,17:00,168.61906,R,ugm-3,116.31012,R,ugm-3,374.85574,R,ugm-3
12-01-2016,18:00,243.80256,R,ugm-3,106.34695,R,ugm-3,480.17233,R,ugm-3
12-01-2016,19:00,115.56235,R,ugm-3,91.66087,R,ugm-3,268.85399,R,ugm-3
12-01-2016,20:00,108.28872,R,ugm-3,70.53874,R,ugm-3,236.57912,R,ugm-3
12-01-2016,21:00,102.03475,R,ugm-3,72.63914,R,ugm-3,229.09025,R,ugm-3
12-01-2016,22:00,48.50220,R,ugm-3,43.34012,R,ugm-3,117.70912,R,ugm-3
12-01-2016,23:00,37.42181,R,ugm-3,39.49886,R,ugm-3,96.87817,R,ugm-3
12-01-2016,24:00,31.77965,R,ugm-3,30.00856,R,ugm-3,78.73667,R,ugm-3
13-01-2016,01:00,12.46261,R,ugm-3,16.92563,R,ugm-3,36.03469,R,ugm-3
13-01-2016,02:00,8.79180,R,ugm-3,10.37850,R,ugm-3,23.85908,R,ugm-3
13-01-2016,03:00,11.82815,R,ugm-3,19.02412,R,ugm-3,37.16035,R,ugm-3
13-01-2016,04:00,6.93374,R,ugm-3,12.75255,R,ugm-3,23.38414,R,ugm-3
13-01-2016,05:00,13.49360,R,ugm-3,21.16851,R,ugm-3,41.85841,R,ugm-3
13-01-2016,06:00,53.90644,R,ugm-3,53.05466,R,ugm-3,135.71004,R,ugm-3
13-01-2016,07:00,117.12584,R,ugm-3,78.15909,R,ugm-3,257.74954,R,ugm-3
13-01-2016,08:00,157.50468,R,ugm-3,88.61330,R,ugm-3,330.11710,R,ugm-3
13-01-2016,09:00,188.02673,R,ugm-3,116.76817,R,ugm-3,405.07180,R,ugm-3
13-01-2016,10:00,183.91407,R,ugm-3,97.26258,R,ugm-3,379.26023,R,ugm-3
13-01-2016,11:00,151.62459,R,ugm-3,110.93169,R,ugm-3,343.41950,R,ugm-3
13-01-2016,12:00,159.00019,R,ugm-3,94.50188,R,ugm-3,338.29878,R,ugm-3
13-01-2016,13:00,182.69047,R,ugm-3,92.01324,R,ugm-3,372.13473,R,ugm-3
13-01-2016,14:00,136.73745,R,ugm-3,93.06129,R,ugm-3,302.72245,R,ugm-3
13-01-2016,15:00,123.24384,R,ugm-3,94.11460,R,ugm-3,283.08586,R,ugm-3
13-01-2016,16:00,159.40806,R,ugm-3,91.65991,R,ugm-3,336.08219,R,ugm-3
13-01-2016,17:00,173.95532,R,ugm-3,124.25130,R,ugm-3,390.97907,R,ugm-3
13-01-2016,18:00,352.39717,R,ugm-3,135.26013,R,ugm-3,675.59493,R,ugm-3
13-01-2016,19:00,245.53599,R,ugm-3,131.78416,R,ugm-3,508.26743,R,ugm-3
13-01-2016,20:00,170.82834,R,ugm-3,104.28910,R,ugm-3,366.22223,R,ugm-3
13-01-2016,21:00,128.98797,R,ugm-3,76.65013,R,ugm-3,274.42893,R,ugm-3
13-01-2016,22:00,94.52320,R,ugm-3,79.35010,R,ugm-3,224.28366,R,ugm-3
13-01-2016,23:00,81.43746,R,ugm-3,65.68433,R,ugm-3,190.55337,R,ugm-3
13-01-2016,24:00,73.75597,R,ugm-3,60.73000,R,ugm-3,173.82091,R,ugm-3
14-01-2016,01:00,22.18157,R,ugm-3,44.03978,R,ugm-3,78.05104,R,ugm-3
14-01-2016,02:00,7.62059,R,ugm-3,28.85453,R,ugm-3,40.53926,R,ugm-3
14-01-2016,03:00,5.81741,R,ugm-3,27.44916,R,ugm-3,36.36906,R,ugm-3
14-01-2016,04:00,3.43600,R,ugm-3,27.72169,R,ugm-3,32.99015,R,ugm-3
14-01-2016,05:00,4.66085,R,ugm-3,22.36047,R,ugm-3,29.50701,R,ugm-3
14-01-2016,06:00,21.05848,R,ugm-3,29.57490,R,ugm-3,61.86412,R,ugm-3
14-01-2016,07:00,65.82875,R,ugm-3,54.04056,R,ugm-3,154.97657,R,ugm-3
14-01-2016,08:00,62.15452,R,ugm-3,78.57172,R,ugm-3,173.87398,R,ugm-3
14-01-2016,09:00,78.00801,R,ugm-3,65.03169,R,ugm-3,184.64231,R,ugm-3
14-01-2016,10:00,72.32687,R,ugm-3,71.31426,R,ugm-3,182.21392,R,ugm-3
14-01-2016,11:00,81.92079,R,ugm-3,78.61475,R,ugm-3,204.22488,R,ugm-3
14-01-2016,12:00,94.09974,R,ugm-3,94.30442,R,ugm-3,238.58868,R,ugm-3
14-01-2016,13:00,82.90678,R,ugm-3,73.46104,R,ugm-3,200.58300,R,ugm-3
14-01-2016,14:00,75.55894,R,ugm-3,65.51364,R,ugm-3,181.36907,R,ugm-3
14-01-2016,15:00,100.12108,R,ugm-3,77.89278,R,ugm-3,231.40963,R,ugm-3
14-01-2016,16:00,118.59391,R,ugm-3,96.86287,R,ugm-3,278.70432,R,ugm-3
14-01-2016,17:00,176.87057,R,ugm-3,107.42895,R,ugm-3,378.62671,R,ugm-3
14-01-2016,18:00,283.28584,R,ugm-3,122.04141,R,ugm-3,556.40697,R,ugm-3
14-01-2016,19:00,227.11805,R,ugm-3,114.04811,R,ugm-3,462.29093,R,ugm-3
14-01-2016,20:00,206.46806,R,ugm-3,115.20135,R,ugm-3,431.78130,R,ugm-3
14-01-2016,21:00,78.58645,R,ugm-3,77.23536,R,ugm-3,197.73290,R,ugm-3
14-01-2016,22:00,33.27173,R,ugm-3,44.63058,R,ugm-3,95.64652,R,ugm-3
14-01-2016,23:00,38.27278,R,ugm-3,52.79743,R,ugm-3,111.48154,R,ugm-3
14-01-2016,24:00,29.49584,R,ugm-3,43.39988,R,ugm-3,88.62621,R,ugm-3
15-01-2016,01:00,10.02455,R,ugm-3,30.30611,R,ugm-3,45.67688,R,ugm-3
15-01-2016,02:00,19.77677,R,ugm-3,24.78345,R,ugm-3,55.10741,R,ugm-3
15-01-2016,03:00,18.54112,R,ugm-3,32.58996,R,ugm-3,61.01927,R,ugm-3
15-01-2016,04:00,6.66807,R,ugm-3,17.17090,R,ugm-3,27.39513,R,ugm-3
15-01-2016,05:00,13.06360,R,ugm-3,21.08866,R,ugm-3,41.11923,R,ugm-3
15-01-2016,06:00,46.06341,R,ugm-3,45.60308,R,ugm-3,116.23267,R,ugm-3
15-01-2016,07:00,97.90962,R,ugm-3,76.63866,R,ugm-3,226.76465,R,ugm-3
15-01-2016,08:00,190.13841,R,ugm-3,97.69480,R,ugm-3,389.23630,R,ugm-3
15-01-2016,09:00,194.73097,R,ugm-3,92.60660,R,ugm-3,391.18992,R,ugm-3
15-01-2016,10:00,182.31410,R,ugm-3,109.16407,R,ugm-3,388.70845,R,ugm-3
15-01-2016,11:00,111.31373,R,ugm-3,82.53155,R,ugm-3,253.21022,R,ugm-3
15-01-2016,12:00,60.86232,R,ugm-3,56.00804,R,ugm-3,149.32896,R,ugm-3